Hourly Data Report for July 20, 2021

CARIBOU POINT (AUT)
NOVA SCOTIA
Current Station Operator: ECCC - MSC

45°46'00.000" N
62°41'00.000" W
2.40 m
8200774
71415
WBK

Download Data

Hourly Data (July 2021)
Hourly Data Report for July 20, 2021
TIME
LST
Temp Definition
°C
Dew Point Definition
°C
Rel Hum Definition
%
Precip. Amount Definition
mm

Wind Dir Definition
10's deg

Wind Spd Definition
km/h
Visibility Definition
km
Stn Press Definition
kPa
Hmdx Definition


Wind Chill Definition


Weather Definition


00:00 21.0 20.2 95 0.0 19 18   101.08 29   LegendNANA
01:00 20.8 19.9 95 0.2 19 16   101.00 28   LegendNANA
02:00 20.5 19.6 95 0.9 20 7   100.97 28   LegendNANA
03:00 20.8 20.1 96 0.7 23 5   100.89 28   LegendNANA
04:00 20.6 19.8 95 0.0 23 8   100.86 28   LegendNANA
05:00 20.0 18.9 93 0.2 22 9   100.85 27   LegendNANA
06:00 19.5 18.5 94 0.0 21 7   100.86     LegendNANA
07:00 20.1 18.9 93 0.0 22 7   100.88 27   LegendNANA
08:00 21.1 19.1 88 0.4 20 12   100.84 28   LegendNANA
09:00 23.5 20.3 82 0.0 23 9   100.84 31   LegendNANA
10:00 24.1 19.8 77 0.0 22 14   100.83 32   LegendNANA
11:00 24.6 19.7 74 0.0 22 14   100.79 32   LegendNANA
12:00 25.1 19.6 72 0.0 25 7   100.75 32   LegendNANA
13:00 22.7 19.4 82 0.0 31 13   100.77 30   LegendNANA
14:00 22.4 19.5 84 0.0 35 12   100.77 30   LegendNANA
15:00 21.4 18.8 85 0.0 35 15   100.77 28   LegendNANA
16:00 21.5 18.4 83 0.0 34 20   100.78 28   LegendNANA
17:00 21.8 18.7 83 0.0 33 13   100.75 28   LegendNANA
18:00 21.9 18.4 80 0.0 33 3   100.76 28   LegendNANA
19:00 19.6 17.6 88 0.0 14 7   100.82     LegendNANA
20:00 20.0 18.0 88 0.0 21 3   100.87 26   LegendNANA
21:00 20.2 18.6 90 0.0 21 5   100.91 27   LegendNANA
22:00 19.7 18.4 92 0.0 36 8   100.93     LegendNANA
23:00 19.6 18.3 93 0.0 10 11   100.93     LegendNANA

Notes on Data Quality.

Legend

  • E = Estimated
  • M = Missing
  • NA = Not Available*
  • [empty] = Indicates an unobserved value
Date modified: